Regional Weather Roundup
Issued by NWS

Home | Current Version | Previous Version | Graphics & Text | Print | Product List | Glossary On
Versions: 1 2 3 4 5 6 7 8 9 10 11 12 13 14 15 16 17 18 19 20 21 22 23 24 25 26 27 28 29 30 31 32 33 34 35 36 37 38 39 40 41 42 43 44 45 46 47 48 49 50
628
ASUS43 KFSD 071210
RWRSD

WEATHER ROUNDUP FOR SOUTH DAKOTA
NATIONAL WEATHER SERVICE SIOUX FALLS SD
600 AM CST SUN FEB 07 2016

NOTE: "FAIR" INDICATES FEW OR NO CLOUDS BELOW 12,000 FEET WITH NO
SIGNIFICANT WEATHER AND/OR OBSTRUCTIONS TO VISIBILITY.


SDZ001>005-009-010-012>017-071300-
NORTHWEST AND NORTH CENTRAL SOUTH DAKOTA

CITY           SKY/WX    TMP DP  RH WIND       PRES   REMARKS
BUFFALO          N/A     33  15  47 W33G44    29.95S WCI  18
FAITH            N/A     33  17  51 W26G35    29.96F WCI  20
MOBRIDGE       CLEAR     38  24  57 W23G35    29.82F
$$

SDZ012>016-024>037-041>051-057-063-072>074-071300-
SOUTHWEST AND SOUTH CENTRAL SOUTH DAKOTA

CITY           SKY/WX    TMP DP  RH WIND       PRES   REMARKS
RAPID CTY ARPT PTCLDY    36  12  37 NW24G40   30.07R
PIERRE         CLOUDY    36  28  73 W22G35    29.94S
CUSTER         CLOUDY    26   8  46 NW20G33   30.04R WCI  12
ELLSWORTH AFB  CLEAR     35  12  40 NW29G36   30.06R WCI  21
PHILIP         CLEAR     36  22  56 W24G32    30.02S
PINE RIDGE     CLOUDY    34  21  59 W8        30.11S WCI  27
SPEARFISH      MIX PCPN  32  10  40 NW24G44   30.10R WCI  19
WINNER         FAIR      36  25  64 W16       30.00R
$$

SDZ004>011-016>023-039-040-071300-
NORTHEAST SOUTH DAKOTA

CITY           SKY/WX    TMP DP  RH WIND       PRES   REMARKS
ABERDEEN       CLOUDY    38  24  57 W20G29    29.79R
WATERTOWN      PTCLDY    33  23  66 W21       29.75S WCI  21
BROOKINGS      CLEAR     34  24  67 W25G33    29.77R WCI  21
SISSETON         N/A     37  25  61 NW28G39   29.67R
$$

SDZ017-020-022-023-036>040-048>070-071300-
SOUTHEAST SOUTH DAKOTA

CITY           SKY/WX    TMP DP  RH WIND       PRES   REMARKS
SIOUX FALLS    MOCLDY    36  24  62 W17G28    29.84R
HURON          MOCLDY    36  28  73 W23       29.87R
CHAMBERLAIN    MOCLDY    35  28  73 NW22G30   29.95S WCI  24
MITCHELL       CLOUDY    36  27  69 W16       29.91S
YANKTON        CLEAR     37  25  60 W22G28    29.93S
$$

ABBREVIATIONS USED IN REMARKS
   TC - TEMPERATURE IN CELSIUS
  WCI - WIND CHILL INDEX
   HX - HEAT INDEX
  VSB - VISIBILITY





USA.gov is the U.S. government's official web portal to all federal, state and local government web resources and services.